| time (UTC) | temp F | wind direction | speed MPH | gust MPH | rain 1hr in | rain 24hr in | rain mn in | humidity % | barometer mb |
| 20260507114134 | 60 | 327 | 9.0 | 25.0 | 0.00 | 0.00 | 0.00 | 85 | 1016.4 |
| 20260507113642 | 60 | 316 | 8.0 | 22.0 | 0.00 | 0.00 | 0.00 | 85 | 1016.2 |
| 20260507113138 | 60 | 355 | 11.0 | 19.0 | 0.00 | 0.00 | 0.00 | 84 | 1016.4 |
| 20260507112652 | 60 | 342 | 7.0 | 21.0 | 0.00 | 0.00 | 0.00 | 84 | 1016.2 |
| 20260507112141 | 60 | 344 | 7.0 | 21.0 | 0.00 | 0.00 | 0.00 | 84 | 1016.2 |
| 20260507102628 | 61 | 355 | 10.0 | 16.0 | 0.00 | 0.00 | 0.00 | 83 | 1015.8 |
| 20260507102140 | 61 | 355 | 4.0 | 11.0 | 0.00 | 0.00 | 0.00 | 84 | 1015.7 |
| 20260507101642 | 61 | 347 | 5.0 | 12.0 | 0.00 | 0.00 | 0.00 | 84 | 1015.6 |
| 20260507101134 | 61 | 355 | 5.0 | 16.0 | 0.00 | 0.00 | 0.00 | 84 | 1015.6 |
| 20260507100636 | 61 | 5 | 6.0 | 16.0 | 0.00 | 0.00 | 0.00 | 84 | 1015.7 |
| 20260507100156 | 61 | 346 | 7.0 | 14.0 | 0.00 | 0.00 | 0.00 | 83 | 1015.4 |
| 20260507095638 | 61 | 9 | 6.0 | 14.0 | 0.00 | 0.00 | 0.00 | 83 | 1015.5 |
| 20260507095149 | 61 | 10 | 5.0 | 13.0 | 0.00 | 0.00 | 0.00 | 83 | 1015.6 |
| 20260507094631 | 61 | 351 | 6.0 | 19.0 | 0.00 | 0.00 | 0.00 | 83 | 1015.6 |
| 20260507094146 | 61 | 26 | 8.0 | 19.0 | 0.00 | 0.00 | 0.00 | 83 | 1015.7 |
| 20260507093649 | 61 | 13 | 6.0 | 18.0 | 0.00 | 0.00 | 0.00 | 83 | 1015.4 |
| 20260507093139 | 61 | 22 | 8.0 | 18.0 | 0.00 | 0.00 | 0.00 | 83 | 1015.4 |
| 20260507092645 | 61 | 346 | 6.0 | 13.0 | 0.00 | 0.00 | 0.00 | 83 | 1015.5 |
| 20260507092136 | 61 | 5 | 7.0 | 13.0 | 0.00 | 0.00 | 0.00 | 83 | 1015.6 |
| 20260507091637 | 61 | 319 | 3.0 | 14.0 | 0.00 | 0.00 | 0.00 | 83 | 1015.6 |
| 20260507091149 | 61 | 324 | 8.0 | 14.0 | 0.00 | 0.00 | 0.00 | 83 | 1015.5 |
| 20260507090638 | 61 | 344 | 8.0 | 14.0 | 0.00 | 0.00 | 0.00 | 83 | 1015.4 |
| 20260507090137 | 61 | 360 | 3.0 | 11.0 | 0.00 | 0.00 | 0.00 | 83 | 1015.7 |
| 20260507085630 | 61 | 11 | 6.0 | 14.0 | 0.00 | 0.00 | 0.00 | 83 | 1015.5 |
| 20260507085130 | 61 | 360 | 7.0 | 14.0 | 0.00 | 0.00 | 0.00 | 83 | 1015.5 |
| 20260507084641 | 62 | 17 | 6.0 | 11.0 | 0.00 | 0.00 | 0.00 | 83 | 1015.6 |
| 20260507084152 | 62 | 25 | 5.0 | 13.0 | 0.00 | 0.00 | 0.00 | 83 | 1015.4 |
| 20260507083634 | 62 | 5 | 6.0 | 13.0 | 0.00 | 0.00 | 0.00 | 83 | 1015.4 |
| 20260507083144 | 62 | 5 | 5.0 | 11.0 | 0.00 | 0.00 | 0.00 | 83 | 1015.6 |
| 20260507082654 | 62 | 33 | 6.0 | 11.0 | 0.00 | 0.00 | 0.00 | 83 | 1015.6 |
| 20260507082138 | 62 | 23 | 5.0 | 11.0 | 0.00 | 0.00 | 0.00 | 83 | 1015.7 |
| 20260507081649 | 62 | 21 | 5.0 | 12.0 | 0.00 | 0.00 | 0.00 | 83 | 1015.6 |
| 20260507081219 | 62 | 35 | 5.0 | 10.0 | 0.00 | 0.00 | 0.00 | 83 | 1015.6 |
| 20260507080659 | 62 | 355 | 3.0 | 12.0 | 0.00 | 0.00 | 0.00 | 83 | 1015.4 |
| 20260507080131 | 62 | 14 | 7.0 | 12.0 | 0.00 | 0.00 | 0.00 | 83 | 1015.4 |
| 20260507075635 | 62 | 14 | 4.0 | 11.0 | 0.00 | 0.00 | 0.00 | 83 | 1015.4 |
| 20260507075130 | 62 | 22 | 6.0 | 11.0 | 0.00 | 0.00 | 0.00 | 83 | 1015.6 |
| 20260507074644 | 62 | 13 | 6.0 | 11.0 | 0.00 | 0.00 | 0.00 | 83 | 1015.5 |
| 20260507074146 | 62 | 355 | 5.0 | 8.0 | 0.00 | 0.00 | 0.00 | 83 | 1015.6 |
| 20260507073652 | 62 | 355 | 4.0 | 11.0 | 0.00 | 0.00 | 0.00 | 84 | 1015.6 |
| 20260507073133 | 62 | 360 | 6.0 | 11.0 | 0.00 | 0.00 | 0.00 | 84 | 1015.6 |
| 20260507072644 | 62 | 11 | 1.0 | 9.0 | 0.00 | 0.00 | 0.00 | 84 | 1015.8 |
| 20260507072215 | 62 | 338 | 4.0 | 11.0 | 0.00 | 0.00 | 0.00 | 84 | 1015.7 |
| 20260507071637 | 62 | 11 | 6.0 | 11.0 | 0.00 | 0.00 | 0.00 | 84 | 1015.6 |
| 20260507071148 | 62 | 355 | 4.0 | 10.0 | 0.00 | 0.00 | 0.00 | 84 | 1015.7 |
| 20260507070630 | 62 | 331 | 4.0 | 11.0 | 0.00 | 0.00 | 0.00 | 84 | 1015.7 |
| 20260507070142 | 62 | 30 | 5.0 | 11.0 | 0.00 | 0.00 | 0.00 | 84 | 1015.5 |
| 20260507065625 | 62 | 355 | 4.0 | 10.0 | 0.00 | 0.00 | 0.00 | 84 | 1015.5 |
| 20260507065151 | 62 | 30 | 5.0 | 10.0 | 0.00 | 0.00 | 0.00 | 84 | 1015.5 |
| 20260507064638 | 62 | 350 | 2.0 | 14.0 | 0.00 | 0.00 | 0.00 | 84 | 1015.7 |
| 20260507064126 | 62 | 16 | 5.0 | 14.0 | 0.00 | 0.00 | 0.00 | 83 | 1015.6 |
| 20260507063635 | 62 | 11 | 4.0 | 8.0 | 0.00 | 0.00 | 0.00 | 84 | 1015.6 |
| 20260507063133 | 62 | 41 | 4.0 | 11.0 | 0.00 | 0.00 | 0.00 | 84 | 1015.8 |
| 20260507062642 | 62 | 5 | 5.0 | 11.0 | 0.00 | 0.00 | 0.00 | 84 | 1015.7 |
| 20260507062130 | 62 | 19 | 5.0 | 13.0 | 0.00 | 0.00 | 0.00 | 84 | 1015.5 |
| 20260507061629 | 62 | 44 | 4.0 | 12.0 | 0.00 | 0.00 | 0.00 | 84 | 1015.5 |
| 20260507061129 | 62 | 17 | 6.0 | 13.0 | 0.00 | 0.00 | 0.00 | 84 | 1015.5 |
| 20260507060628 | 62 | 55 | 7.0 | 14.0 | 0.00 | 0.00 | 0.00 | 84 | 1015.5 |
| 20260507060135 | 62 | 59 | 5.0 | 13.0 | 0.00 | 0.00 | 0.00 | 84 | 1015.4 |
| 20260507055640 | 62 | 25 | 3.0 | 9.0 | 0.00 | 0.00 | 0.00 | 84 | 1015.5 |
| 20260507055138 | 62 | 34 | 1.0 | 11.0 | 0.00 | 0.00 | 0.00 | 84 | 1015.3 |
| 20260507054626 | 62 | 5 | 5.0 | 12.0 | 0.00 | 0.00 | 0.00 | 84 | 1015.2 |
| 20260507054132 | 62 | 335 | 5.0 | 12.0 | 0.00 | 0.00 | 0.00 | 84 | 1014.8 |
| 20260507053631 | 62 | 22 | 7.0 | 12.0 | 0.00 | 0.00 | 0.00 | 84 | 1014.8 |
| 20260507053139 | 63 | 350 | 5.0 | 11.0 | 0.00 | 0.00 | 0.00 | 84 | 1014.8 |
| 20260507052647 | 63 | 350 | 3.0 | 11.0 | 0.00 | 0.00 | 0.00 | 84 | 1014.7 |
| 20260507052134 | 63 | 26 | 4.0 | 14.0 | 0.00 | 0.00 | 0.00 | 84 | 1014.8 |
| 20260507051642 | 63 | 38 | 5.0 | 14.0 | 0.00 | 0.00 | 0.00 | 84 | 1014.7 |
| 20260507051141 | 63 | 5 | 6.0 | 12.0 | 0.00 | 0.00 | 0.00 | 84 | 1014.9 |
| 20260507050628 | 63 | 20 | 3.0 | 13.0 | 0.00 | 0.00 | 0.00 | 84 | 1015.1 |
| 20260507050137 | 63 | 26 | 6.0 | 13.0 | 0.00 | 0.00 | 0.00 | 84 | 1014.9 |
| 20260507045644 | 63 | 38 | 3.0 | 12.0 | 0.00 | 0.00 | 0.00 | 83 | 1014.9 |
| 20260507045146 | 63 | 25 | 6.0 | 12.0 | 0.00 | 0.00 | 0.00 | 84 | 1015.2 |
| 20260507044637 | 63 | 36 | 4.0 | 12.0 | 0.00 | 0.00 | 0.00 | 83 | 1015.2 |
| 20260507044207 | 63 | 355 | 5.0 | 12.0 | 0.00 | 0.00 | 0.00 | 83 | 1015.1 |
| 20260507043658 | 63 | 40 | 4.0 | 10.0 | 0.00 | 0.00 | 0.00 | 83 | 1015.0 |
| 20260507043159 | 63 | 339 | 5.0 | 13.0 | 0.00 | 0.00 | 0.00 | 84 | 1014.9 |
| 20260507042648 | 63 | 345 | 7.0 | 18.0 | 0.00 | 0.00 | 0.00 | 83 | 1014.8 |
| 20260507042135 | 63 | 341 | 10.0 | 18.0 | 0.00 | 0.00 | 0.00 | 83 | 1014.9 |
| 20260507041708 | 63 | 331 | 8.0 | 18.0 | 0.00 | 0.00 | 0.00 | 83 | 1014.9 |
| 20260507041200 | 63 | 337 | 7.0 | 12.0 | 0.00 | 0.00 | 0.00 | 84 | 1014.6 |
| 20260507040641 | 63 | 13 | 8.0 | 15.0 | 0.00 | 0.00 | 0.00 | 84 | 1014.6 |
| 20260507040152 | 63 | 36 | 8.0 | 15.0 | 0.00 | 0.00 | 0.00 | 84 | 1014.5 |
| 20260507035633 | 63 | 13 | 6.0 | 16.0 | 0.00 | 0.00 | 0.00 | 84 | 1014.4 |
| 20260507035159 | 63 | 19 | 8.0 | 18.0 | 0.00 | 0.00 | 0.00 | 84 | 1014.2 |
| 20260507034649 | 63 | 339 | 10.0 | 18.0 | 0.00 | 0.00 | 0.00 | 84 | 1014.2 |
| 20260507034131 | 63 | 13 | 8.0 | 15.0 | 0.00 | 0.00 | 0.00 | 84 | 1014.2 |
| 20260507033642 | 63 | 355 | 8.0 | 16.0 | 0.00 | 0.00 | 0.00 | 84 | 1014.2 |
| 20260507033144 | 63 | 348 | 11.0 | 16.0 | 0.00 | 0.00 | 0.00 | 84 | 1014.2 |
| 20260507032655 | 63 | 355 | 6.0 | 20.0 | 0.00 | 0.00 | 0.00 | 84 | 1014.2 |
| 20260507032137 | 63 | 355 | 10.0 | 20.0 | 0.00 | 0.00 | 0.00 | 84 | 1013.7 |
| 20260507031647 | 63 | 52 | 10.0 | 15.0 | 0.00 | 0.00 | 0.00 | 84 | 1014.0 |
| 20260507031155 | 63 | 355 | 6.0 | 14.0 | 0.00 | 0.00 | 0.00 | 84 | 1014.2 |
| 20260507030642 | 63 | 21 | 9.0 | 14.0 | 0.00 | 0.00 | 0.00 | 84 | 1014.3 |
| 20260507030155 | 63 | 360 | 7.0 | 18.0 | 0.00 | 0.00 | 0.00 | 84 | 1014.3 |
| 20260507025636 | 63 | 351 | 5.0 | 18.0 | 0.00 | 0.00 | 0.00 | 84 | 1014.1 |
| 20260507025216 | 63 | 346 | 8.0 | 19.0 | 0.00 | 0.00 | 0.00 | 84 | 1014.2 |
| 20260507024657 | 63 | 338 | 7.0 | 15.0 | 0.00 | 0.00 | 0.00 | 84 | 1014.1 |
| 20260507024140 | 63 | 5 | 6.0 | 14.0 | 0.00 | 0.00 | 0.00 | 84 | 1014.1 |
| 20260507023653 | 63 | 355 | 6.0 | 14.0 | 0.00 | 0.00 | 0.00 | 84 | 1014.1 |
| 20260507023133 | 63 | 326 | 8.0 | 14.0 | 0.00 | 0.00 | 0.00 | 84 | 1014.0 |
| 20260507022645 | 63 | 344 | 6.0 | 15.0 | 0.00 | 0.00 | 0.00 | 84 | 1014.2 |
| 20260507022218 | 63 | 360 | 6.0 | 15.0 | 0.00 | 0.00 | 0.00 | 84 | 1014.1 |
| 20260507021639 | 63 | 26 | 6.0 | 14.0 | 0.00 | 0.00 | 0.00 | 84 | 1014.0 |
| 20260507021150 | 63 | 22 | 7.0 | 16.0 | 0.00 | 0.00 | 0.00 | 84 | 1013.7 |
| 20260507020632 | 63 | 5 | 10.0 | 20.0 | 0.00 | 0.00 | 0.00 | 84 | 1013.4 |
| 20260507020139 | 63 | 355 | 10.0 | 20.0 | 0.00 | 0.00 | 0.00 | 83 | 1012.9 |
| 20260507015641 | 63 | 355 | 8.0 | 15.0 | 0.00 | 0.00 | 0.00 | 83 | 1012.9 |
| 20260507015131 | 63 | 326 | 8.0 | 19.0 | 0.00 | 0.00 | 0.00 | 83 | 1013.2 |
| 20260507014633 | 63 | 13 | 10.0 | 19.0 | 0.00 | 0.00 | 0.00 | 83 | 1013.2 |
| 20260507014144 | 63 | 336 | 8.0 | 16.0 | 0.00 | 0.00 | 0.00 | 83 | 1013.1 |
| 20260507013656 | 64 | 350 | 9.0 | 16.0 | 0.00 | 0.00 | 0.00 | 83 | 1013.2 |
| 20260507013138 | 64 | 344 | 5.0 | 13.0 | 0.00 | 0.00 | 0.00 | 83 | 1013.2 |
| 20260507012651 | 64 | 355 | 4.0 | 16.0 | 0.00 | 0.00 | 0.00 | 82 | 1013.2 |
| 20260507012129 | 64 | 32 | 6.0 | 16.0 | 0.00 | 0.00 | 0.00 | 82 | 1013.1 |
| 20260507011641 | 64 | 18 | 9.0 | 15.0 | 0.00 | 0.00 | 0.00 | 82 | 1012.6 |
| 20260507011209 | 64 | 332 | 7.0 | 18.0 | 0.00 | 0.00 | 0.00 | 82 | 1012.7 |
| 20260507010629 | 64 | 338 | 10.0 | 19.0 | 0.00 | 0.00 | 0.00 | 82 | 1012.4 |
| 20260507010138 | 64 | 360 | 6.0 | 19.0 | 0.00 | 0.00 | 0.00 | 81 | 1012.4 |
| 20260507005649 | 64 | 30 | 5.0 | 16.0 | 0.00 | 0.00 | 0.00 | 81 | 1012.4 |
| 20260507005148 | 64 | 325 | 9.0 | 16.0 | 0.00 | 0.00 | 0.00 | 81 | 1012.3 |
| 20260507004659 | 65 | 11 | 9.0 | 16.0 | 0.00 | 0.00 | 0.00 | 81 | 1012.3 |
| 20260507004148 | 65 | 9 | 7.0 | 16.0 | 0.00 | 0.00 | 0.00 | 81 | 1012.5 |
| 20260507003631 | 65 | 350 | 7.0 | 20.0 | 0.00 | 0.00 | 0.00 | 81 | 1012.6 |
| 20260507003143 | 65 | 343 | 9.0 | 20.0 | 0.00 | 0.00 | 0.00 | 80 | 1012.4 |
| 20260507002647 | 65 | 31 | 8.0 | 15.0 | 0.00 | 0.00 | 0.00 | 80 | 1012.3 |
| 20260507002200 | 65 | 10 | 10.0 | 15.0 | 0.00 | 0.00 | 0.00 | 80 | 1012.2 |
| 20260507001650 | 66 | 28 | 7.0 | 18.0 | 0.00 | 0.00 | 0.00 | 80 | 1012.2 |
| 20260507001200 | 66 | 18 | 7.0 | 18.0 | 0.00 | 0.00 | 0.00 | 79 | 1012.2 |
| 20260507000642 | 66 | 9 | 8.0 | 18.0 | 0.00 | 0.00 | 0.00 | 79 | 1012.2 |
| 20260507000148 | 67 | 355 | 6.0 | 16.0 | 0.00 | 0.00 | 0.00 | 79 | 1011.9 |
| 20260506235633 | 67 | 355 | 5.0 | 16.0 | 0.00 | 0.00 | 0.00 | 78 | 1012.0 |
| 20260506235148 | 67 | 5 | 5.0 | 16.0 | 0.00 | 0.00 | 0.00 | 78 | 1012.0 |
| 20260506234639 | 67 | 9 | 6.0 | 19.0 | 0.00 | 0.00 | 0.00 | 78 | 1012.0 |
| 20260506234148 | 67 | 5 | 8.0 | 19.0 | 0.00 | 0.00 | 0.00 | 77 | 1011.6 |
| 20260506233649 | 68 | 12 | 5.0 | 21.0 | 0.00 | 0.00 | 0.00 | 77 | 1011.5 |
| 20260506233139 | 68 | 360 | 11.0 | 21.0 | 0.00 | 0.00 | 0.00 | 76 | 1011.4 |
| 20260506232641 | 69 | 351 | 9.0 | 16.0 | 0.00 | 0.00 | 0.00 | 75 | 1011.6 |
| 20260506232131 | 69 | 300 | 6.0 | 15.0 | 0.00 | 0.00 | 0.00 | 76 | 1011.5 |
| 20260506231644 | 69 | 349 | 8.0 | 15.0 | 0.00 | 0.00 | 0.00 | 75 | 1011.6 |
| 20260506231147 | 69 | 5 | 6.0 | 20.0 | 0.00 | 0.00 | 0.00 | 76 | 1011.4 |
| 20260506230657 | 70 | 350 | 8.0 | 18.0 | 0.00 | 0.00 | 0.00 | 74 | 1011.4 |
| 20260506230148 | 71 | 337 | 9.0 | 21.0 | 0.00 | 0.00 | 0.00 | 74 | 1011.2 |
| 20260506225633 | 71 | 10 | 6.0 | 21.0 | 0.00 | 0.00 | 0.00 | 74 | 1011.1 |
| 20260506225139 | 71 | 329 | 7.0 | 22.0 | 0.00 | 0.00 | 0.00 | 73 | 1011.1 |
| 20260506224644 | 72 | 5 | 11.0 | 23.0 | 0.00 | 0.00 | 0.00 | 71 | 1011.2 |
| 20260506224135 | 73 | 5 | 7.0 | 21.0 | 0.00 | 0.00 | 0.00 | 71 | 1011.1 |
| 20260506223633 | 73 | 36 | 8.0 | 20.0 | 0.00 | 0.00 | 0.00 | 72 | 1011.0 |
| 20260506223142 | 74 | 355 | 8.0 | 20.0 | 0.00 | 0.00 | 0.00 | 71 | 1010.9 |
| 20260506222655 | 75 | 338 | 7.0 | 16.0 | 0.00 | 0.00 | 0.00 | 71 | 1010.8 |
| 20260506222136 | 75 | 19 | 9.0 | 19.0 | 0.00 | 0.00 | 0.00 | 70 | 1010.6 |
| 20260506221705 | 75 | 5 | 10.0 | 19.0 | 0.00 | 0.00 | 0.00 | 71 | 1010.6 |
| 20260506221220 | 76 | 12 | 9.0 | 20.0 | 0.00 | 0.00 | 0.00 | 70 | 1010.6 |
| 20260506220639 | 76 | 22 | 10.0 | 20.0 | 0.00 | 0.00 | 0.00 | 70 | 1010.6 |
| 20260506220152 | 76 | 325 | 8.0 | 20.0 | 0.00 | 0.00 | 0.00 | 71 | 1010.5 |
| 20260506215639 | 76 | 360 | 12.0 | 20.0 | 0.00 | 0.00 | 0.00 | 70 | 1010.4 |
| 20260506215151 | 77 | 355 | 12.0 | 19.0 | 0.00 | 0.00 | 0.00 | 70 | 1010.6 |
| 20260506214634 | 77 | 336 | 10.0 | 19.0 | 0.00 | 0.00 | 0.00 | 72 | 1010.6 |
| 20260506214147 | 77 | 31 | 7.0 | 16.0 | 0.00 | 0.00 | 0.00 | 71 | 1010.7 |
| 20260506213720 | 78 | 18 | 8.0 | 16.0 | 0.00 | 0.00 | 0.00 | 71 | 1010.6 |
| 20260506213157 | 78 | 11 | 8.0 | 19.0 | 0.00 | 0.00 | 0.00 | 71 | 1010.6 |
| 20260506212627 | 78 | 40 | 9.0 | 19.0 | 0.00 | 0.00 | 0.00 | 72 | 1010.4 |
| 20260506212138 | 78 | 345 | 9.0 | 19.0 | 0.00 | 0.00 | 0.00 | 71 | 1010.3 |
| 20260506211640 | 78 | 35 | 10.0 | 18.0 | 0.00 | 0.00 | 0.00 | 73 | 1010.3 |
| 20260506211150 | 77 | 32 | 6.0 | 19.0 | 0.00 | 0.00 | 0.00 | 74 | 1010.4 |
| 20260506210703 | 78 | 49 | 9.0 | 16.0 | 0.00 | 0.00 | 0.00 | 73 | 1010.5 |
| 20260506210144 | 78 | 55 | 7.0 | 15.0 | 0.00 | 0.00 | 0.00 | 74 | 1010.6 |
| 20260506205656 | 78 | 59 | 9.0 | 15.0 | 0.00 | 0.00 | 0.00 | 73 | 1010.3 |
| 20260506205146 | 77 | 355 | 10.0 | 15.0 | 0.00 | 0.00 | 0.00 | 76 | 1010.3 |
| 20260506204717 | 76 | 22 | 9.0 | 16.0 | 0.00 | 0.00 | 0.00 | 76 | 1010.5 |
| 20260506204157 | 77 | 5 | 6.0 | 19.0 | 0.00 | 0.00 | 0.00 | 76 | 1010.6 |
| 20260506203648 | 77 | 23 | 8.0 | 20.0 | 0.00 | 0.00 | 0.00 | 75 | 1010.5 |
| 20260506203159 | 78 | 5 | 8.0 | 20.0 | 0.00 | 0.00 | 0.00 | 73 | 1010.5 |
| 20260506202656 | 80 | 30 | 10.0 | 15.0 | 0.00 | 0.00 | 0.00 | 71 | 1010.6 |
| 20260506202126 | 82 | 327 | 3.0 | 13.0 | 0.00 | 0.00 | 0.00 | 76 | 1010.5 |
| 20260506201629 | 82 | 58 | 1.0 | 7.0 | 0.00 | 0.00 | 0.00 | 76 | 1010.3 |
| 20260506201140 | 82 | 53 | 3.0 | 8.0 | 0.00 | 0.00 | 0.00 | 75 | 1010.4 |
| 20260506200651 | 82 | 56 | 4.0 | 8.0 | 0.00 | 0.00 | 0.00 | 73 | 1010.6 |
| 20260506200158 | 83 | 355 | 1.0 | 5.0 | 0.00 | 0.00 | 0.00 | 72 | 1010.6 |
| 20260506195659 | 83 | 66 | 0.0 | 0.0 | 0.00 | 0.00 | 0.00 | 73 | 1010.4 |
| 20260506195150 | 82 | 70 | 0.0 | 2.0 | 0.00 | 0.00 | 0.00 | 72 | 1010.5 |
| 20260506194632 | 82 | 70 | 0.0 | 6.0 | 0.00 | 0.00 | 0.00 | 74 | 1010.4 |
| 20260506194143 | 82 | 71 | 2.0 | 6.0 | 0.00 | 0.00 | 0.00 | 73 | 1010.3 |
| 20260506193652 | 82 | 34 | 0.0 | 4.0 | 0.00 | 0.00 | 0.00 | 72 | 1010.3 |
| 20260506193131 | 82 | 90 | 0.0 | 8.0 | 0.00 | 0.00 | 0.00 | 72 | 1010.3 |
| 20260506192643 | 83 | 60 | 4.0 | 8.0 | 0.00 | 0.00 | 0.00 | 71 | 1010.3 |
| 20260506192152 | 83 | 46 | 0.0 | 6.0 | 0.00 | 0.00 | 0.00 | 72 | 1010.4 |
| 20260506191635 | 82 | 40 | 1.0 | 6.0 | 0.00 | 0.00 | 0.00 | 73 | 1010.6 |
| 20260506191141 | 82 | 34 | 0.0 | 6.0 | 0.00 | 0.00 | 0.00 | 73 | 1010.5 |
| 20260506190639 | 82 | 63 | 3.0 | 6.0 | 0.00 | 0.00 | 0.00 | 74 | 1010.7 |
| 20260506190151 | 83 | 18 | 2.0 | 6.0 | 0.00 | 0.00 | 0.00 | 74 | 1010.6 |
| 20260506185638 | 81 | 55 | 3.0 | 6.0 | 0.00 | 0.00 | 0.00 | 75 | 1010.7 |
| 20260506185141 | 81 | 65 | 3.0 | 8.0 | 0.00 | 0.00 | 0.00 | 76 | 1010.8 |
| 20260506184634 | 81 | 94 | 3.0 | 8.0 | 0.00 | 0.00 | 0.00 | 77 | 1010.8 |
| 20260506184149 | 81 | 130 | 1.0 | 5.0 | 0.00 | 0.00 | 0.00 | 76 | 1010.8 |
| 20260506183631 | 81 | 80 | 0.0 | 7.0 | 0.00 | 0.00 | 0.00 | 74 | 1010.8 |
| 20260506183156 | 81 | 71 | 3.0 | 7.0 | 0.00 | 0.00 | 0.00 | 75 | 1011.0 |
| 20260506182639 | 81 | 83 | 5.0 | 7.0 | 0.00 | 0.00 | 0.00 | 77 | 1011.1 |
| 20260506182150 | 81 | 147 | 5.0 | 9.0 | 0.00 | 0.00 | 0.00 | 76 | 1011.0 |
| 20260506181632 | 81 | 115 | 6.0 | 9.0 | 0.00 | 0.00 | 0.00 | 76 | 1011.0 |
| 20260506181126 | 80 | 82 | 2.0 | 9.0 | 0.00 | 0.00 | 0.00 | 76 | 1011.0 |
| 20260506180632 | 80 | 68 | 3.0 | 9.0 | 0.00 | 0.00 | 0.00 | 78 | 1011.1 |
| 20260506180143 | 80 | 105 | 3.0 | 8.0 | 0.00 | 0.00 | 0.00 | 79 | 1011.2 |
| 20260506175653 | 80 | 85 | 5.0 | 8.0 | 0.00 | 0.00 | 0.00 | 78 | 1011.2 |
| 20260506175134 | 79 | 29 | 1.0 | 6.0 | 0.00 | 0.00 | 0.00 | 81 | 1011.2 |
| 20260506174648 | 78 | 115 | 3.0 | 9.0 | 0.00 | 0.00 | 0.00 | 82 | 1011.2 |
| 20260506174213 | 77 | 102 | 4.0 | 10.0 | 0.00 | 0.00 | 0.00 | 82 | 1011.3 |
| 20260506173631 | 77 | 65 | 7.0 | 11.0 | 0.00 | 0.00 | 0.00 | 80 | 1011.4 |
| 20260506173142 | 78 | 5 | 4.0 | 11.0 | 0.00 | 0.00 | 0.00 | 81 | 1011.5 |
| 20260506172626 | 78 | 355 | 2.0 | 11.0 | 0.00 | 0.00 | 0.00 | 82 | 1011.7 |
| 20260506172156 | 78 | 52 | 5.0 | 10.0 | 0.00 | 0.00 | 0.00 | 82 | 1011.6 |
| 20260506171646 | 78 | 51 | 4.0 | 10.0 | 0.00 | 0.00 | 0.00 | 82 | 1011.7 |
| 20260506171155 | 78 | 31 | 4.0 | 10.0 | 0.00 | 0.00 | 0.00 | 83 | 1011.7 |
| 20260506170658 | 78 | 53 | 4.0 | 10.0 | 0.00 | 0.00 | 0.00 | 83 | 1011.7 |
| 20260506170148 | 78 | 65 | 5.0 | 9.0 | 0.00 | 0.00 | 0.00 | 83 | 1011.5 |
| 20260506165631 | 78 | 34 | 5.0 | 9.0 | 0.00 | 0.00 | 0.00 | 84 | 1011.6 |
| 20260506165141 | 78 | 42 | 3.0 | 9.0 | 0.00 | 0.00 | 0.00 | 84 | 1011.6 |
| 20260506164715 | 78 | 123 | 3.0 | 9.0 | 0.00 | 0.00 | 0.00 | 83 | 1011.7 |
| 20260506164130 | 78 | 54 | 5.0 | 9.0 | 0.00 | 0.00 | 0.00 | 83 | 1011.7 |
| 20260506163642 | 78 | 101 | 3.0 | 8.0 | 0.00 | 0.00 | 0.00 | 84 | 1011.7 |
| 20260506163155 | 78 | 61 | 5.0 | 8.0 | 0.00 | 0.00 | 0.00 | 84 | 1011.6 |
| 20260506162652 | 78 | 88 | 3.0 | 8.0 | 0.00 | 0.00 | 0.00 | 84 | 1011.7 |
| 20260506162139 | 78 | 63 | 5.0 | 7.0 | 0.00 | 0.00 | 0.00 | 85 | 1011.6 |
| 20260506161653 | 77 | 33 | 4.0 | 8.0 | 0.00 | 0.00 | 0.00 | 85 | 1011.7 |
| 20260506161134 | 77 | 107 | 4.0 | 8.0 | 0.00 | 0.00 | 0.00 | 85 | 1011.6 |
| 20260506160649 | 77 | 79 | 4.0 | 7.0 | 0.00 | 0.00 | 0.00 | 86 | 1011.7 |
| 20260506160211 | 77 | 108 | 2.0 | 6.0 | 0.00 | 0.00 | 0.00 | 88 | 1011.5 |
| 20260506155702 | 76 | 42 | 2.0 | 6.0 | 0.00 | 0.00 | 0.00 | 88 | 1011.6 |
| 20260506155144 | 76 | 65 | 1.0 | 7.0 | 0.00 | 0.00 | 0.00 | 88 | 1011.6 |
| 20260506154656 | 76 | 86 | 0.0 | 7.0 | 0.00 | 0.00 | 0.00 | 89 | 1011.5 |
| 20260506154206 | 76 | 58 | 0.0 | 5.0 | 0.00 | 0.00 | 0.00 | 90 | 1011.3 |
| 20260506153632 | 75 | 73 | 2.0 | 5.0 | 0.00 | 0.00 | 0.00 | 90 | 1011.3 |
| 20260506153144 | 75 | 73 | 1.0 | 5.0 | 0.00 | 0.00 | 0.00 | 90 | 1011.1 |
| 20260506152647 | 75 | 73 | 1.0 | 5.0 | 0.00 | 0.00 | 0.00 | 91 | 1011.1 |
| 20260506152138 | 75 | 133 | 0.0 | 4.0 | 0.00 | 0.00 | 0.00 | 91 | 1011.0 |
| 20260506151641 | 75 | 134 | 1.0 | 4.0 | 0.00 | 0.00 | 0.00 | 91 | 1011.0 |
| 20260506151132 | 75 | 86 | 1.0 | 3.0 | 0.00 | 0.00 | 0.00 | 91 | 1010.8 |
| 20260506150629 | 75 | 86 | 1.0 | 5.0 | 0.00 | 0.00 | 0.00 | 91 | 1010.8 |
| 20260506150142 | 75 | 85 | 2.0 | 5.0 | 0.00 | 0.00 | 0.00 | 91 | 1010.7 |
| 20260506145650 | 75 | 72 | 2.0 | 5.0 | 0.00 | 0.00 | 0.00 | 92 | 1010.6 |
| 20260506145129 | 75 | 134 | 1.0 | 4.0 | 0.00 | 0.00 | 0.00 | 92 | 1010.7 |
| 20260506144641 | 75 | 134 | 0.0 | 1.0 | 0.00 | 0.00 | 0.00 | 92 | 1010.8 |
| 20260506144142 | 75 | 134 | 0.0 | 1.0 | 0.00 | 0.00 | 0.00 | 92 | 1010.8 |
| 20260506143635 | 75 | 134 | 0.0 | 0.0 | 0.00 | 0.00 | 0.00 | 92 | 1010.8 |
| 20260506143138 | 74 | 134 | 0.0 | 0.0 | 0.00 | 0.00 | 0.00 | 92 | 1010.8 |
| 20260506142649 | 74 | 134 | 0.0 | 4.0 | 0.00 | 0.00 | 0.00 | 92 | 1010.7 |
| 20260506142159 | 75 | 134 | 1.0 | 4.0 | 0.00 | 0.00 | 0.00 | 92 | 1010.7 |
| 20260506141641 | 74 | 136 | 0.0 | 6.0 | 0.00 | 0.00 | 0.00 | 92 | 1010.7 |
| 20260506141143 | 74 | 137 | 3.0 | 6.0 | 0.00 | 0.00 | 0.00 | 92 | 1010.3 |
| 20260506140653 | 74 | 131 | 0.0 | 5.0 | 0.00 | 0.00 | 0.00 | 92 | 1010.3 |
| 20260506140135 | 74 | 132 | 4.0 | 6.0 | 0.00 | 0.00 | 0.00 | 92 | 1010.2 |
| 20260506135648 | 74 | 109 | 0.0 | 6.0 | 0.00 | 0.00 | 0.00 | 93 | 1010.1 |
| 20260506135216 | 74 | 86 | 2.0 | 5.0 | 0.00 | 0.00 | 0.00 | 93 | 1009.8 |
| 20260506134655 | 74 | 100 | 0.0 | 2.0 | 0.00 | 0.00 | 0.00 | 92 | 1009.8 |
| 20260506134127 | 74 | 132 | 0.0 | 7.0 | 0.00 | 0.00 | 0.00 | 92 | 1009.6 |
| 20260506133629 | 74 | 130 | 4.0 | 7.0 | 0.00 | 0.00 | 0.00 | 92 | 1009.6 |
| 20260506133139 | 74 | 114 | 3.0 | 5.0 | 0.00 | 0.00 | 0.00 | 92 | 1009.5 |
| 20260506132649 | 74 | 108 | 3.0 | 6.0 | 0.00 | 0.00 | 0.00 | 92 | 1009.6 |
| 20260506132219 | 74 | 103 | 3.0 | 6.0 | 0.00 | 0.00 | 0.00 | 93 | 1009.4 |
| 20260506131709 | 74 | 157 | 1.0 | 4.0 | 0.00 | 0.00 | 0.00 | 92 | 1009.5 |
| 20260506131151 | 74 | 126 | 2.0 | 11.0 | 0.00 | 0.00 | 0.00 | 92 | 1009.5 |
| 20260506130640 | 74 | 121 | 4.0 | 11.0 | 0.00 | 0.00 | 0.00 | 92 | 1009.2 |
| 20260506130150 | 74 | 172 | 4.0 | 8.0 | 0.00 | 0.00 | 0.00 | 92 | 1009.1 |
| 20260506125701 | 74 | 100 | 2.0 | 10.0 | 0.00 | 0.00 | 0.00 | 92 | 1009.1 |
| 20260506125149 | 74 | 124 | 6.0 | 10.0 | 0.00 | 0.00 | 0.00 | 92 | 1009.1 |
| 20260506124630 | 74 | 140 | 2.0 | 7.0 | 0.00 | 0.00 | 0.00 | 92 | 1009.1 |
| 20260506124201 | 74 | 133 | 4.0 | 7.0 | 0.00 | 0.00 | 0.00 | 92 | 1009.2 |
| 20260506123651 | 74 | 144 | 4.0 | 6.0 | 0.00 | 0.00 | 0.00 | 92 | 1009.1 |
| 20260506123133 | 74 | 156 | 2.0 | 6.0 | 0.00 | 0.00 | 0.00 | 92 | 1009.2 |
| 20260506122643 | 74 | 140 | 3.0 | 6.0 | 0.00 | 0.00 | 0.00 | 92 | 1009.2 |
| 20260506122132 | 74 | 138 | 3.0 | 4.0 | 0.00 | 0.00 | 0.00 | 92 | 1009.2 |
| 20260506121644 | 74 | 138 | 2.0 | 4.0 | 0.00 | 0.00 | 0.00 | 92 | 1009.2 |
| 20260506121145 | 74 | 136 | 0.0 | 6.0 | 0.00 | 0.00 | 0.00 | 92 | 1009.1 |
| 20260506120655 | 74 | 135 | 1.0 | 6.0 | 0.00 | 0.00 | 0.00 | 91 | 1009.2 |
| 20260506120138 | 74 | 112 | 1.0 | 5.0 | 0.00 | 0.00 | 0.00 | 91 | 1009.1 |
| 20260506115649 | 74 | 111 | 1.0 | 6.0 | 0.00 | 0.00 | 0.00 | 91 | 1009.1 |
| 20260506115220 | 74 | 150 | 2.0 | 6.0 | 0.00 | 0.00 | 0.00 | 91 | 1009.1 |
| 20260506114640 | 74 | 131 | 3.0 | 5.0 | 0.00 | 0.00 | 0.00 | 91 | 1009.0 |